Home > Weather > Milwaukee > Past weeks

Flag for U.S.A. Weather for the Past 2 Weeks in Milwaukee, Wisconsin, U.S.A.

Now
9 °F

Clear.


Feels Like: -8 °F
Forecast: 0 / 10 °F
Wind: 14 mph from Northwest

Location: Milwaukee / Timmerman

Current Time: Feb 12, 2016 at 8:34:27 PM

Latest Report: Feb 12, 2016 at 6:45 PM


Visibility: 10 mi

Pressure: 30.34 "Hg

Humidity: 43%

Dew point: -9 °F

Location of MilwaukeeLocation

Historic Weather in Milwaukee — Graph

°F

Milwaukee Temperature Yesterday

Maximum temperature yesterday: 18 °F (at 1:45 PM)
Minimum temperature yesterday: -2 °F (at 11:45 AM)
Average temperature yesterday: 9 °F

High & Low Weather Summary for the Past Weeks

 TemperatureHumidityPressure
High45 °F (Jan 30, 2:45 PM)100% (Feb 2, 2:35 AM)30.34 "Hg (Feb 2, 2:35 AM)
Low-2 °F (Feb 11, 11:45 AM)39% (Jan 29, 12:45 PM)29.44 "Hg (Feb 3, 1:35 AM)
Average26 °F73%29.92 "Hg
* Reported Jan 28 6:45 PM — Feb 12 6:45 PM, Milwaukee, Weather by CustomWeather, © 2016

Note: Actual official high and low records may vary slightly from our data, if they occured in-between our weather recording intervals... More about our weather records

Advertising

Milwaukee Weather History for the Previous 24 Hours

 ConditionsComfort  
Time TempWeatherWind HumidityBarometerVisibility
6:45 PM
Fri, Feb 12
9 °FClear.14 mph43%30.34 "Hg10 mi
4:45 PM12 °FScattered clouds.20 mph44%30.26 "Hg10 mi
3:45 PM16 °FPartly sunny.20 mph48%30.20 "Hg10 mi
2:45 PM16 °FScattered clouds.28 mph45%30.17 "Hg10 mi
1:45 PM18 °FScattered clouds.25 mph41%30.15 "Hg10 mi
12:45 PM19 °FPartly sunny.16 mph45%30.14 "Hg10 mi
11:45 AM18 °FBroken clouds.21 mph49%30.14 "Hg10 mi
10:45 AM18 °FPartly sunny.18 mph53%30.14 "Hg10 mi
9:45 AM16 °FPartly sunny.20 mph57%30.13 "Hg10 mi
8:45 AM16 °FPartly sunny.13 mph57%30.13 "Hg10 mi
7:45 AM16 °FOvercast.14 mph53%30.13 "Hg10 mi
6:45 AM16 °FMostly cloudy.15 mph53%30.12 "Hg10 mi
6:15 AM18 °FOvercast.10 mph49%30.12 "Hg10 mi
5:55 AM18 °FMostly cloudy.12 mph49%30.11 "Hg10 mi
5:35 AM18 °FMostly cloudy.12 mph45%30.11 "Hg10 mi
5:15 AM18 °FMostly cloudy.10 mph45%30.12 "Hg10 mi
4:55 AM18 °FOvercast.9 mph45%30.11 "Hg10 mi
4:35 AM18 °FOvercast.8 mph45%30.11 "Hg10 mi
4:15 AM18 °FOvercast.9 mph49%30.11 "Hg10 mi
3:55 AM18 °FOvercast.12 mph53%30.12 "Hg10 mi
3:35 AM18 °FOvercast.12 mph53%30.12 "Hg10 mi
3:15 AM18 °FOvercast.12 mph53%30.12 "Hg10 mi
2:55 AM18 °FOvercast.9 mph53%30.13 "Hg10 mi
2:15 AM18 °FOvercast.8 mph53%30.14 "Hg10 mi
1:55 AM18 °FOvercast.8 mph53%30.15 "Hg10 mi
1:15 AM18 °FOvercast.8 mph49%30.17 "Hg10 mi
12:55 AM18 °FOvercast.10 mph49%30.17 "Hg10 mi
12:35 AM18 °FOvercast.8 mph49%30.18 "Hg10 mi
12:15 AM18 °FOvercast.10 mph45%30.19 "Hg10 mi
11:55 PM
Thu, Feb 11
18 °FOvercast.8 mph45%30.20 "Hg10 mi
11:35 PM18 °FOvercast.8 mph45%30.21 "Hg10 mi
11:15 PM18 °FOvercast.7 mph45%30.21 "Hg10 mi
10:55 PM16 °FOvercast.7 mph48%30.22 "Hg10 mi
10:15 PM16 °FOvercast.10 mph45%30.23 "Hg10 mi
9:55 PM18 °FOvercast.8 mph41%30.23 "Hg10 mi
9:15 PM16 °FOvercast.6 mph48%30.23 "Hg10 mi
8:55 PM14 °FOvercast.5 mph52%30.24 "Hg10 mi
8:35 PM14 °FOvercast.5 mph52%30.25 "Hg10 mi
Weather by CustomWeather, © 2016

See weather overviewHow to use our weather pages